Orbital Elements at Epoch 2458982.5 (2020-May-13.0) TDB
Reference: JPL 1 (heliocentric ecliptic J2000)
Element | Value | Uncertainty (1-sigma) | Units |
e | .3280566368863531 | 0.012911 | |
a | 1.531610373362801 | 0.021067 | au |
q | 1.029155425257149 | 0.005729 | au |
i | .3244232366657108 | 0.017882 | deg |
node | 100.2416654731642 | 3.3212 | deg |
peri | 175.8595533228412 | 4.4604 | deg |
M | 337.614668433178 | 0.12758 | deg |
tp | 2459025.550867403621 (2020-Jun-25.05086740) | 0.71707 | TDB |
period | 692.342314387431 1.90 | 14.284 0.03911 | d yr |
n | .5199739962716564 | 0.010728 | deg/d |
Q | 2.034065321468454 | 0.027978 | au |
|
| | Orbit Determination Parameters
Additional Information
|